COSMOS 1695

Satellite information

Favourite Embed

Satellite Type and Status

PAYLOADIN ORBIT

Key statistics

Satellite COSMOS 1695 at a glance.

Uptime

14518

Days in orbit

Revolutions

≈ 12.6

Per day

Orbit

LEO

Low Earth Orbit

Inclination

82.6

Latest

Satellite identification and parameters

Extended collection of information and parameters for COSMOS 1695.

Object identification

Identified? True

Debris? False

Object name: COSMOS 1695

International designator: 1985-094F

Object number (NORAD): 16143

Object ID (CCSDS): 16143

Country: COMMONWEALTH OF INDEPENDENT STATES (CIS)

Current information (Y/N): Y

RCS size: MEDIUM

Orbital parameters

Period: 114.024 minutes

Inclination: 82.6036 deg

SMA: 7789.157 km

Apoapsis: 1416.613 km

Periapsis: 1405.43 km

RAAN: 127.5241 deg

Eccentricy: 0.0007178

Argument of periapsis: 173.7438 deg

Mean anomaly: 255.4779 deg

Mean motion: 12.62894621 rev/day

Mean motion (dot): 0.00000009 rev/day2

B* drag term: -0.0000075992 1/REarth

Two-line elements (TLE)

Creation date: July 8, 2025, 2:27 a.m.

Reference frame: TEME

Reference center: EARTH

Epoch: July 7, 2025, 10:21 p.m. UTC

TLE line 0: 0 COSMOS 1695

TLE line 1: 1 16143U 85094F 25188.93146436 .00000009 00000-0 -75992-5 0 9998

TLE line 2: 2 16143 82.6036 127.5241 0007178 173.7438 255.4779 12.62894621832047

Live tracking on map

Real-time ground track for satellite COSMOS 1695.

In-orbit conjunctions

There are no conjunctions computed for COSMOS 1695, at the moment. Check back to stay up to date, as we update our databases every day.

Go to all conjunctions

Associated space launch

Second generation store-dump military communications satellite

COSMOS 1695 was lifted into orbit during the mission ‘Tsiklon-3 | Strela-3 7 to 12’, on board a Tsiklon-3 space rocket.

The launch took place on Oct. 9, 1985, 9:35 p.m. from 32/1.

For more information about the launch, click the button.

Launch to space Tsiklon-3 | Strela-3 7 to 12
Tsiklon-3 | Strela-3 7 to 12

Agency: N/A

Status: Launch Successful

Launch date: Oct. 9, 1985, 9:35 p.m. UTC

Rocket: Tsiklon-3

Launch pad: 32/1

Location: Plesetsk Cosmodrome, Russian Federation

...

Latest news about this satellite

There are no fresh news available about this satellite. Check back as we update our databases every day.


Newsletter sign-up

Weekly statistics, charts and insights to help you stay on top of the space industry.